Regional Weather Roundup
Issued by NWS Upton, NY

Current Version | Previous Version | Text Only | Print | Product List | Glossary On
Versions: 1 2 3 4 5 6 7 8 9 10 11 12 13 14 15 16 17 18 19 20 21 22 23 24 25 26 27
000
ASUS41 KOKX 011904
RWROKX

REGIONAL WEATHER ROUNDUP
NATIONAL WEATHER SERVICE NEW YORK NY
300 PM EDT SUN MAY 01 2016

NOTE: "FAIR" INDICATES FEW OR NO CLOUDS BELOW 12,000 FEET WITH NO
SIGNIFICANT WEATHER AND/OR OBSTRUCTIONS TO VISIBILITY.

NYZ071-072-176-178-NJZ106-104-012000-
NEW YORK CITY METRO AREA


CITY           SKY/WX    TMP DP  RH WIND       PRES   REMARKS
CENTRAL PARK   CLOUDY    48  42  80 VRB6      30.17S
LAGUARDIA APRT LGT RAIN  49  42  77 SE9       30.15F
KENNEDY INTL   DRIZZLE   48  43  82 E12       30.17F
NEWARK/LIBERTY LGT RAIN  45  44  97 SE6G16    30.15F
BRNX BOT. GARD   N/A     46  43  87 SE5       30.15F
TETERBORO      CLOUDY    49  42  77 SE8       30.14F
$$

NYZ177-179-078>081-012000-
LONG ISLAND NEW YORK

CITY           SKY/WX    TMP DP  RH WIND       PRES   REMARKS
FARMINGDALE    CLOUDY    48  44  86 SE10      30.16F
ISLIP          LGT RAIN  48  44  86 SE9       30.16F FOG
SHIRLEY        LGT RAIN  46  43  89 SE5       30.18F
RIVERHEAD        N/A     46  43  87 E2        30.18S
WESTHAMPTON    LGT RAIN  45  41  86 E7        30.20F
EAST HAMPTON   CLOUDY    46  38  74 SE10      30.20S
MONTAUK POINT    N/A     46  38  73 E5        30.22F
$$

NYZ052-065-067-012000-
HUDSON VALLEY

CITY           SKY/WX    TMP DP  RH WIND       PRES   REMARKS
WHITE PLAINS   LGT RAIN  46  42  86 SE9       30.14F FOG
NEWBURGH       LGT RAIN  46  46 100 SE12      30.15S FOG
MONTGOMERY     LGT RAIN  46  44  93 NE6       30.13F FOG
POUGHKEEPSIE   LGT RAIN  48  43  82 SE6       30.15S
ALBANY         LGT RAIN  45  41  86 S10G18    30.16F
$$

NJZ001-105-106-008-010-013-015-019>022-104-012000-
NEW JERSEY

CITY           SKY/WX    TMP DP  RH WIND       PRES   REMARKS
NEWARK/LIBERTY LGT RAIN  45  44  97 SE6G16    30.15F
TETERBORO      CLOUDY    49  42  77 SE8       30.14F
CALDWELL       CLOUDY    48  43  82 VRB6      30.14F
MORRISTOWN     DRIZZLE   48  45  87 S6        30.14F
SOMERVILLE     CLOUDY    50  47  89 SE5       30.11F
SUSSEX         CLOUDY    47  44  90 CALM      30.12F
ANDOVER          N/A     47  44  90 VRB5      30.12S
TRENTON        CLOUDY    50  47  89 SE8       30.13R
MILLVILLE      RAIN      51  50  96 E5        30.11R FOG
ATLANTIC CITY  LGT RAIN  51  50  96 E7        30.11F FOG
WRIGHTSTOWN    LGT RAIN  50  48  93 E7        30.09F
TOMS RIVER     CLOUDY    48  45  87 E5        30.13S
BELMAR         LGT RAIN  48  47  96 E9        30.14F FOG
$$

PAZ047>061-062-071-012000-
EASTERN PENNSYLVANIA

CITY           SKY/WX    TMP DP  RH WIND       PRES   REMARKS
PHILADELPHIA   LGT RAIN  52  48  86 SE6       30.12F
ALLENTOWN      LGT RAIN  49  46  90 SE3       30.11F FOG
SCRANTON       CLOUDY    46  43  89 CALM      30.07F
$$

CTZ002-004>006-009-010-012-RIZ004-006-007-MAZ004-011-015-012000-
SOUTHERN NEW ENGLAND
 IN CT

CITY           SKY/WX    TMP DP  RH WIND       PRES   REMARKS
BRADLEY INTL   CLOUDY    47  35  63 S8        30.18F
HARTFORD       CLOUDY    50  34  54 S9        30.19F
DANBURY        LGT RAIN  46  43  89 E6        30.16F FOG
WTRBRY/OXFORD  LGT RAIN  45  39  81 SE9       30.18F FOG
BRIDGEPORT     LGT RAIN  48  41  76 SE10      30.18S
MERIDEN        LGT RAIN  48  35  60 SE6       30.19F
NEW HAVEN      CLOUDY    47  37  68 E9        30.19F
CHESTER        LGT RAIN  46  32  57 SE8       30.18F
GROTON         LGT RAIN  48  41  76 SE9       30.20F
WILLIMANTIC    CLOUDY    51  28  41 SE8       30.19F

 IN RI

CITY           SKY/WX    TMP DP  RH WIND       PRES   REMARKS
PROVIDENCE     LGT RAIN  49  29  46 S10       30.23S
BLOCK ISLAND   LGT RAIN  46  36  68 SE9       30.22S
WESTERLY       LGT RAIN  48  37  65 E8        30.22F

 IN MA

CITY           SKY/WX    TMP DP  RH WIND       PRES   REMARKS
BOSTON         LGT RAIN  50  36  58 SE8       30.23S
WORCESTER      LGT RAIN  47  27  45 SE10      30.19S
WESTFIELD      CLOUDY    47  34  60 S5        30.19F
PROVINCETOWN   CLOUDY    51  26  37 S10       30.24S
NANTUCKET      CLOUDY    49  39  68 SE13      30.22S
$$

ANZ330-335-338-340-345-350-353-355-012000-
COASTAL MARINE OBSERVATIONS


STATION/POSITION TIME  SKY/WX   TEMP    WIND        PRES    VSBY  WAVE
                                AIR SEA DIR/SP/G                  HT/PER
                 (UTC)          (F)     (DEG/KT/KT) (MB)    (MI)  (FT/S)
NY HARB ENTRANCE 1750            47 51  100/ 14/ 17 1020.6          4/ 8
20S FIRE ISLAND  1750            47 48   90/ 12/ 14 1021.3          5/ 8
GREAT SOUTH BAY  1830            48 57  110/ 10/ 14   N/A
23 SSW MONTAUK P 1850            45 48  120/ 10/ 12 1022.1          4/ 9
15 E BARNEGAT LI 1822               51                N/A           4/ 8
HUDSON CANYON    1750            50 48              1020.5          6/ 8
KINGS POINT      1800            47 53              1021.1
EXECUTION ROCKS  NOT AVBL
CENTRAL LI SOUND 1800            48     110/ 12/ 14   N/A           1/ 3
EASTERN LI SOUND 1800            48 48  110/ 10/ 12   N/A
ROBBINS REEF     1800            47     130/ 13/ 16 1020.2
$$


>>>>>>>>>>>>>>>>>>>>>>>>>>>> KEY <<<<<<<<<<<<<<<<<<<<<<<<<<<
>                                                          <
>     SKY/WX - SKY CONDITION/PRESENT WEATHER               <
>     TMP    - TEMPERATURE IN FAHRENHEIT                   <
>     DP     - DEWPOINT IN FAHRENHEIT                      <
>     RH     - RELATIVE HUMIDITY IN PERCENT                <
>     WIND   - DIRECTION AND SPEED IN MPH                  <
>     PRES   - MEAN SEA LEVEL PRESSURE IN INCHES OF HG     <
>     WCI    - WIND CHILL INDEX                            <
>     VSB    - VISIBILITY IN MILES                         <
>     HX     - HEAT INDEX                                  <
>     TC     - TEMPERATURE IN CELSIUS                      <
>     VRB    - VARIABLE WIND DIRECTION                     <
>                                                          <
>>>>>>>>>>>>>>>>>>>>>>>>>>>> KEY <<<<<<<<<<<<<<<<<<<<<<<<<<<






USA.gov is the U.S. government's official web portal to all federal, state and local government web resources and services.